Bingham Lake, MN

11:00 AM CDT on August 31, 2016 (GMT -0500)
Windom Municipal

Weather History for KMWM - November, 2013

Change the Weather History Date:

Friday, November 8, 2013

  Actual Average Record
Temperature  
Mean Temperature 36 °F -  
Max Temperature 48 °F 47 °F 82 °F (2006)
Min Temperature 24 °F 26 °F -4 °F (1991)
Degree Days  
Heating Degree Days 29    
Moisture  
Dew Point 30 °F    
Average Humidity 74    
Maximum Humidity 86    
Minimum Humidity 61    
Precipitation  
Precipitation 0.00 in - - ()
Sea Level Pressure  
Sea Level Pressure 29.85 in    
Wind  
Wind Speed 10 mph (South)    
Max Wind Speed 25 mph    
Max Gust Speed 34 mph    
Visibility 10 miles    
Events      
Averages and records for this station are not official NWS values.
T = Trace of Precipitation, MM = Missing Value Source: NWS Daily Summary

Daily Weather History Graph

Daily Weather History Graph

Search for Another Location

Airport or City:

Trip Planner

Search our weather history database for the weather conditions in past years. The results will help you decide how hot, cold, wet, or windy it might be!

Date:

Astronomy

Nov. 08, 2013 Rise Set
Actual Time 7:06 AM CST 5:01 PM CST
Civil Twilight 6:35 AM CST 5:32 PM CST
Nautical Twilight 6:01 AM CST 6:06 PM CST
Astronomical Twilight 5:27 AM CST 6:40 PM CST
Moon 12:02 PM CST (11/8) 10:24 PM CST (11/8)
Length of Visible Light 10h 56m
Length of Day
9h 55m
Waxing Crescent, 33% of the Moon is Illuminated
Nov 8
Waxing Crescent
Nov 9
First Quarter
Nov 17
Full
Nov 25
Last Quarter
Dec 2
New

Hourly Weather History & Observations

Time (CST) Temp. Windchill Dew Point Humidity Pressure Visibility Wind Dir Wind Speed Gust Speed Precip Events Conditions
12:12 AM 28.4 °F 23.3 °F 23.0 °F 80% 30.19 in 10.0 mi SSW 4.6 mph - N/A   Clear
12:32 AM 26.6 °F 22.6 °F 23.0 °F 86% 30.18 in 10.0 mi SSW 3.5 mph - N/A   Clear
12:52 AM 26.6 °F 22.6 °F 23.0 °F 86% 30.18 in 10.0 mi SSW 3.5 mph - N/A   Clear
1:13 AM 26.6 °F 20.0 °F 23.0 °F 86% 30.18 in 10.0 mi South 5.8 mph - N/A   Clear
1:32 AM 26.6 °F 22.6 °F 23.0 °F 86% 30.17 in 10.0 mi SSW 3.5 mph - N/A   Clear
1:52 AM 26.6 °F 22.6 °F 23.0 °F 86% 30.17 in 10.0 mi SSW 3.5 mph - N/A   Clear
2:13 AM 26.6 °F - 23.0 °F 86% 30.17 in 10.0 mi Calm Calm - N/A   Clear
2:32 AM 24.8 °F 20.5 °F 21.2 °F 86% 30.16 in 10.0 mi South 3.5 mph - N/A   Clear
2:52 AM 24.8 °F - 21.2 °F 86% 30.16 in 10.0 mi Calm Calm - N/A   Clear
3:13 AM 24.8 °F - 21.2 °F 86% 30.14 in 10.0 mi Calm Calm - N/A   Clear
3:32 AM 24.8 °F 20.5 °F 21.2 °F 86% 30.14 in 10.0 mi South 3.5 mph - N/A   Clear
3:52 AM 24.8 °F 20.5 °F 21.2 °F 86% 30.13 in 10.0 mi South 3.5 mph - N/A   Clear
4:13 AM 26.6 °F 21.2 °F 21.2 °F 80% 30.12 in 10.0 mi South 4.6 mph - N/A   Clear
4:32 AM 26.6 °F 21.2 °F 21.2 °F 80% 30.11 in 10.0 mi South 4.6 mph - N/A   Clear
4:52 AM 26.6 °F 21.2 °F 21.2 °F 80% 30.10 in 10.0 mi South 4.6 mph - N/A   Clear
5:13 AM 28.4 °F 21.2 °F 21.2 °F 74% 30.09 in 10.0 mi South 6.9 mph - N/A   Clear
5:32 AM 30.2 °F 24.3 °F 21.2 °F 69% 30.08 in 10.0 mi South 5.8 mph - N/A   Clear
5:52 AM 30.2 °F 23.4 °F 21.2 °F 69% 30.06 in 10.0 mi South 6.9 mph - N/A   Clear
6:13 AM 30.2 °F 23.4 °F 23.0 °F 75% 30.05 in 10.0 mi SSE 6.9 mph - N/A   Clear
6:32 AM 32.0 °F 24.8 °F 24.8 °F 75% 30.05 in 10.0 mi SSE 8.1 mph - N/A   Scattered Clouds
6:52 AM 33.8 °F 25.3 °F 24.8 °F 70% 30.02 in 10.0 mi SSE 11.5 mph - N/A   Scattered Clouds
7:13 AM 33.8 °F 26.4 °F 24.8 °F 70% 30.03 in 10.0 mi SSE 9.2 mph - N/A   Mostly Cloudy
7:32 AM 33.8 °F 25.8 °F 24.8 °F 70% 30.02 in 10.0 mi SSE 10.4 mph - N/A   Mostly Cloudy
7:52 AM 35.6 °F 27.5 °F 26.6 °F 70% 30.00 in 10.0 mi SSE 11.5 mph - N/A   Scattered Clouds
8:13 AM 35.6 °F 26.6 °F 26.6 °F 70% 29.99 in 10.0 mi SE 13.8 mph 19.6 mph N/A   Clear
8:32 AM 35.6 °F 26.6 °F 26.6 °F 70% 29.97 in 10.0 mi SE 13.8 mph - N/A   Clear
8:52 AM 35.6 °F 25.5 °F 26.6 °F 70% 29.95 in 10.0 mi SE 17.3 mph 20.7 mph N/A   Clear
9:13 AM 35.6 °F 26.2 °F 26.6 °F 70% 29.93 in 10.0 mi SE 15.0 mph 21.9 mph N/A   Clear
9:32 AM 35.6 °F 25.9 °F 26.6 °F 70% 29.92 in 10.0 mi SE 16.1 mph 26.5 mph N/A   Clear
9:52 AM 37.4 °F 27.2 °F 26.6 °F 65% 29.89 in 10.0 mi SE 19.6 mph 25.3 mph N/A   Clear
10:13 AM 37.4 °F 27.2 °F 26.6 °F 65% 29.87 in 10.0 mi SE 19.6 mph 28.8 mph N/A   Clear
10:32 AM 39.2 °F 29.8 °F 26.6 °F 61% 29.86 in 10.0 mi SE 18.4 mph 27.6 mph N/A   Clear
10:52 AM 39.2 °F 29.6 °F 28.4 °F 65% 29.83 in 10.0 mi SE 19.6 mph 27.6 mph N/A   Clear
11:13 AM 39.2 °F 28.5 °F 28.4 °F 65% 29.82 in 10.0 mi SE 24.2 mph 29.9 mph N/A   Clear
11:32 AM 41.0 °F 30.7 °F 28.4 °F 61% 29.79 in 10.0 mi SE 25.3 mph 32.2 mph N/A   Clear
11:53 AM 41.0 °F 31.4 °F 30.2 °F 65% 29.77 in 10.0 mi SE 21.9 mph 28.8 mph N/A   Clear
12:12 PM 41.0 °F 31.6 °F 30.2 °F 65% 29.75 in 10.0 mi SE 20.7 mph 29.9 mph N/A   Clear
12:32 PM 42.8 °F 34.5 °F 30.2 °F 61% 29.72 in 10.0 mi SE 18.4 mph 27.6 mph N/A   Clear
12:53 PM 42.8 °F 34.0 °F 32.0 °F 66% 29.70 in 10.0 mi SSE 20.7 mph 27.6 mph N/A   Clear
1:12 PM 44.6 °F 36.4 °F 32.0 °F 61% 29.70 in 10.0 mi SSE 20.7 mph 29.9 mph N/A   Clear
1:32 PM 44.6 °F 35.7 °F 32.0 °F 61% 29.68 in 10.0 mi SSE 24.2 mph 34.5 mph N/A   Clear
1:53 PM 44.6 °F 36.6 °F 32.0 °F 61% 29.66 in 10.0 mi SSE 19.6 mph 29.9 mph N/A   Clear
2:12 PM 44.6 °F 36.1 °F 33.8 °F 66% 29.65 in 10.0 mi SSE 21.9 mph 25.3 mph N/A   Clear
2:32 PM 44.6 °F 37.2 °F 33.8 °F 66% 29.63 in 10.0 mi SSE 17.3 mph 28.8 mph N/A   Clear
2:53 PM 44.6 °F 37.2 °F 33.8 °F 66% 29.62 in 10.0 mi SSE 17.3 mph 25.3 mph N/A   Clear
3:12 PM 46.4 °F 41.9 °F 35.6 °F 66% 29.62 in 10.0 mi SSE 9.2 mph - N/A   Clear
3:32 PM 46.4 °F 41.5 °F 35.6 °F 66% 29.63 in 10.0 mi South 10.4 mph - N/A   Clear
3:53 PM 46.4 °F 41.9 °F 35.6 °F 66% 29.63 in 10.0 mi South 9.2 mph - N/A   Clear
4:12 PM 48.2 °F - 35.6 °F 62% 29.63 in 10.0 mi South 10.4 mph - N/A   Clear
4:32 PM 48.2 °F - 35.6 °F 62% 29.63 in 10.0 mi South 12.7 mph 17.3 mph N/A   Clear
4:53 PM 46.4 °F 41.5 °F 35.6 °F 66% 29.63 in 10.0 mi South 10.4 mph 17.3 mph N/A   Clear
5:12 PM 46.4 °F 41.5 °F 37.4 °F 71% 29.63 in 10.0 mi South 10.4 mph - N/A   Clear
5:32 PM 46.4 °F 40.7 °F 37.4 °F 71% 29.62 in 10.0 mi South 12.7 mph - N/A   Clear
5:53 PM 46.4 °F 41.1 °F 37.4 °F 71% 29.64 in 10.0 mi South 11.5 mph - N/A   Scattered Clouds
6:12 PM 46.4 °F 41.1 °F 37.4 °F 71% 29.64 in 10.0 mi SSW 11.5 mph - N/A   Mostly Cloudy
6:32 PM 46.4 °F 40.1 °F 37.4 °F 71% 29.64 in 10.0 mi SW 15.0 mph 18.4 mph N/A   Mostly Cloudy
6:53 PM 46.4 °F 39.8 °F 39.2 °F 76% 29.65 in 10.0 mi SW 16.1 mph 21.9 mph N/A   Scattered Clouds
7:12 PM 46.4 °F 40.1 °F 39.2 °F 76% 29.66 in 10.0 mi West 15.0 mph - N/A   Clear
7:32 PM 46.4 °F 40.1 °F 39.2 °F 76% 29.66 in 10.0 mi West 15.0 mph - N/A   Clear
7:53 PM 44.6 °F 38.1 °F 39.2 °F 81% 29.67 in 10.0 mi WSW 13.8 mph - N/A   Clear
8:12 PM 44.6 °F 38.8 °F 39.2 °F 81% 29.67 in 10.0 mi WSW 11.5 mph - N/A   Scattered Clouds
8:32 PM 44.6 °F 38.1 °F 39.2 °F 81% 29.67 in 10.0 mi WSW 13.8 mph - N/A   Mostly Cloudy
8:52 PM 44.6 °F 38.4 °F 39.2 °F 81% 29.67 in 10.0 mi SW 12.7 mph - N/A   Overcast
9:12 PM 44.6 °F 37.4 °F 39.2 °F 81% 29.68 in 10.0 mi WSW 16.1 mph 20.7 mph N/A   Overcast
9:33 PM 44.6 °F 37.4 °F 39.2 °F 81% 29.68 in 10.0 mi WSW 16.1 mph 21.9 mph N/A   Overcast
9:52 PM 46.4 °F 39.2 °F 39.2 °F 76% 29.68 in 10.0 mi WSW 18.4 mph - N/A   Overcast
10:12 PM 44.6 °F 38.1 °F 39.2 °F 81% 29.68 in 10.0 mi WSW 13.8 mph - N/A   Scattered Clouds
10:33 PM 44.6 °F 37.8 °F 39.2 °F 81% 29.68 in 10.0 mi WSW 15.0 mph 19.6 mph N/A   Mostly Cloudy
10:52 PM 44.6 °F 37.2 °F 39.2 °F 81% 29.69 in 10.0 mi WSW 17.3 mph 21.9 mph N/A   Overcast
11:12 PM 44.6 °F 37.2 °F 39.2 °F 81% 29.70 in 10.0 mi West 17.3 mph 23.0 mph N/A   Overcast
11:33 PM 44.6 °F 36.9 °F 39.2 °F 81% 29.71 in 10.0 mi WSW 18.4 mph - N/A   Overcast
11:52 PM 44.6 °F 37.2 °F 39.2 °F 81% 29.71 in 10.0 mi West 17.3 mph 24.2 mph N/A   Overcast